User: anonymous   Login
Location: Champs
(48.8539°N, 2.6040°E)
Time: 00:13:43
(UTC+00:00)
Language:

FENGYUN 1C DEB - Orbit

View from above orbital plane
View from above orbital plane
View from above satellite
View from above satellite

Ground track
Ground track

The orbit data is extracted from the following two-line orbital elements,

1 31218U 99025BKY 22222.37471465  .00002585  00000-0  10499-2 0  9992
2 31218  98.8755 267.4808 0033663  79.2659 281.2309 14.28196173794752
Epoch (UTC): 10 August 2022 08:59:35
Eccentricity: 0.0033663
inclination: 98.8755°
perigee height: 773 km
apogee height: 822 km
right ascension of ascending node: 267.4808°
argument of perigee: 79.2659°
revolutions per day: 14.28196173
mean anomaly at epoch: 281.2309°
orbit number at epoch: 79475

The dashed part of the orbit path shows where the satellite is in the earth's shadow,  

DLR